sat.trackr.live / text

‹ back to catalog

ONEWEB-0176

NORAD 48210 · 2021-031A

PAYLOAD ACTIVE UNKNOWN

§ Identity

Operator
Country
UK
Launch date
2021-04-25
Launch site
VOSTO
Launch vehicle
Mass (kg)
RCS (m²)

Purposes: comms

External: N2YO · Heavens-Above · Gunter

§ Orbital elements

Epoch: 2026-09-20T00:29:42.280800Z

Period
109.55 min
Inclination
87.8897°
Eccentricity
0.0001854
Mean motion
13.14502239 rev/d
Perigee alt
1,204.4 km
Apogee alt
1,207.2 km
Semi-major
7,583.9 km
B*
6.4134e-4
RAAN
270.7831°
Arg perigee
89.1224°
Mean anomaly
271.0118°
Rev number
26,077

§ Raw data

ONEWEB-01761 48210U 21031A   26263.02062825  .00000251  00000+0  64134-3 0  99942 48210  87.8897 270.7831 0001854  89.1224 271.0118 13.14502239260778

JSON: /api/v1/satellites/48210 · /tle

For live sub-satellite position, see the globe view (requires WebGL).

§ Visibility from observer

Set your observer location to see the next 7 days of passes ≥ 10°. The values pass through the URL so the page stays shareable.

No JS? Fill the form by hand. The geolocation button needs JavaScript.